Weather History for Tomahawk, WI

Change the Weather History Date:

Thursday, February 21, 2013

  Actual Average (KRHI) Record (KRHI)
Temperature  
Mean Temperature 7 °F 18 °F  
Max Temperature 28 °F 28 °F 52 °F (1930)
Min Temperature -14 °F 8 °F -34 °F (1929)
Degree Days  
Heating Degree Days 58 47  
Month to date heating degree days 1043  
Since 1 July heating degree days 6304  
Cooling Degree Days 0 0  
Month to date cooling degree days 0  
Year to date cooling degree days 0  
Moisture  
Dew Point 4 °F    
Average Humidity 74    
Maximum Humidity 93    
Minimum Humidity 51    
Precipitation  
Precipitation 0.00 in 0.04 in 1.75 in (1937)
Month to date precipitation 0.66  
Year to date precipitation 1.77  
Snow  
Snow 0.00 in - 20.00 in (1937)
Month to date snowfall  
Since 1 July snowfall  
Snow Depth -    
Sea Level Pressure  
Sea Level Pressure 30.29 in    
Wind  
Wind Speed 3 mph (NE)    
Max Wind Speed 15 mph    
Max Gust Speed 21 mph    
Visibility 10 miles    
Events Snow    
T = Trace of Precipitation, MM = Missing Value Source: NWS Daily Summary

Daily Weather History Graph

Daily Weather History Graph

Search for Another Location

Airport:

Trip Planner

Search our weather history database for the weather conditions in past years. The results will help you decide how hot, cold, wet, or windy it might be!

Date:

Astronomy

Feb. 21, 2013 Rise Set
Actual Time 6:50 AM CST 5:35 PM CST
Civil Twilight 6:20 AM CST 6:05 PM CST
Nautical Twilight 5:46 AM CST 6:39 PM CST
Astronomical Twilight 5:12 AM CST 7:14 PM CST
Moon 1:42 PM CST (2/21) 4:03 AM CST (2/21)
Length of Visible Light 11h 44m
Length of Day
10h 44m
Waxing Gibbous, 84% of the Moon is Illuminated
Feb 21
Waxing Gibbous
Feb 25
Full
Mar 4
Last Quarter
Mar 11
New
Mar 19
First Quarter

Hourly Weather History & Observations

Time (CST) Temp. Windchill Dew Point Humidity Pressure Visibility Wind Dir Wind Speed Gust Speed Precip Events Conditions
12:15 AM -7.6 °F - -13.0 °F 77% 30.33 in 10.0 mi Calm Calm - N/A   Clear
12:35 AM -5.8 °F - -9.4 °F 84% 30.34 in 10.0 mi Calm Calm - N/A   Clear
12:55 AM -7.6 °F - -13.0 °F 77% 30.35 in 10.0 mi Calm Calm - N/A   Clear
1:15 AM -9.4 °F - -14.8 °F 77% 30.35 in 10.0 mi Calm Calm - N/A   Clear
1:35 AM -7.6 °F - -13.0 °F 77% 30.35 in 10.0 mi Calm Calm - N/A   Clear
1:55 AM -11.2 °F - -16.6 °F 77% 30.35 in 10.0 mi Calm Calm - N/A   Clear
2:15 AM -9.4 °F - -14.8 °F 77% 30.36 in 10.0 mi Calm Calm - N/A   Clear
2:35 AM -9.4 °F - -14.8 °F 77% 30.36 in 10.0 mi Calm Calm - N/A   Clear
2:55 AM -13.0 °F - -16.6 °F 84% 30.35 in 10.0 mi Calm Calm - N/A   Clear
3:15 AM -13.0 °F - -18.4 °F 77% 30.37 in 10.0 mi Calm Calm - N/A   Clear
3:35 AM -11.2 °F - -16.6 °F 77% 30.37 in 10.0 mi Calm Calm - N/A   Clear
3:55 AM -11.2 °F - -16.6 °F 77% 30.37 in 10.0 mi Calm Calm - N/A   Clear
4:15 AM -13.0 °F - -16.6 °F 84% 30.38 in 10.0 mi Calm Calm - N/A   Clear
4:35 AM -13.0 °F - -18.4 °F 77% 30.39 in 10.0 mi Calm Calm - N/A   Clear
4:55 AM -14.8 °F - -22.0 °F 70% 30.40 in 10.0 mi Calm Calm - N/A   Clear
5:15 AM -13.0 °F - -16.6 °F 84% 30.40 in 10.0 mi Calm Calm - N/A   Clear
5:55 AM -4.0 °F -12.4 °F -7.6 °F 85% 30.40 in 10.0 mi NNE 3.5 mph - N/A   Overcast
6:15 AM -0.4 °F - -4.0 °F 85% 30.40 in 10.0 mi Calm Calm - N/A   Overcast
6:35 AM -0.4 °F -8.3 °F -4.0 °F 85% 30.39 in 10.0 mi NNE 3.5 mph - N/A   Overcast
6:55 AM 1.4 °F -11.3 °F -2.2 °F 85% 30.36 in 10.0 mi NNE 6.9 mph - N/A   Overcast
7:15 AM 1.4 °F -9.9 °F -0.4 °F 92% 30.33 in 10.0 mi NNE 5.8 mph - N/A   Overcast
7:35 AM 3.2 °F -10.3 °F -0.4 °F 85% 30.32 in 10.0 mi NE 8.1 mph - N/A   Overcast
7:55 AM 3.2 °F -10.3 °F -0.4 °F 85% 30.29 in 10.0 mi NE 8.1 mph - N/A   Overcast
8:15 AM 5.0 °F - 1.4 °F 85% 30.34 in 10.0 mi Calm Calm - N/A   Overcast
8:35 AM 5.0 °F - 3.2 °F 92% 30.39 in 3.0 mi Calm Calm - N/A Snow Light Snow
8:55 AM 5.0 °F - 3.2 °F 92% 30.41 in 4.0 mi Calm Calm - N/A Snow Light Snow
9:15 AM 6.8 °F - 3.2 °F 85% 30.41 in 7.0 mi Calm Calm - N/A   Overcast
9:35 AM 8.6 °F - 5.0 °F 85% 30.40 in 4.0 mi Calm Calm - N/A Snow Light Snow
9:55 AM 10.4 °F - 6.8 °F 85% 30.39 in 10.0 mi Calm Calm - N/A Snow Light Snow
10:15 AM 12.2 °F 6.1 °F 6.8 °F 79% 30.38 in 10.0 mi North 3.5 mph - N/A Snow Light Snow
10:35 AM 14.0 °F 6.5 °F 6.8 °F 73% 30.38 in 10.0 mi NE 4.6 mph - N/A   Clear
10:55 AM 14.0 °F 8.2 °F 6.8 °F 73% 30.36 in 10.0 mi North 3.5 mph - N/A   Clear
11:15 AM 17.6 °F - 6.8 °F 63% 30.35 in 10.0 mi Calm Calm - N/A   Clear
11:35 AM 17.6 °F - 8.6 °F 68% 30.36 in 10.0 mi Calm Calm - N/A   Clear
11:55 AM 19.4 °F - 8.6 °F 63% 30.36 in 10.0 mi Calm Calm - N/A   Clear
12:15 PM 19.4 °F - 8.6 °F 63% 30.34 in 10.0 mi Calm Calm - N/A   Clear
12:35 PM 21.2 °F 16.4 °F 8.6 °F 58% 30.33 in 10.0 mi NE 3.5 mph - N/A   Clear
12:55 PM 23.0 °F 18.4 °F 10.4 °F 59% 30.31 in 10.0 mi NE 3.5 mph - N/A   Clear
1:15 PM 24.8 °F 19.1 °F 10.4 °F 54% 30.30 in 10.0 mi East 4.6 mph - N/A   Clear
1:35 PM 26.6 °F 22.6 °F 10.4 °F 51% 30.29 in 10.0 mi East 3.5 mph - N/A   Clear
1:55 PM 26.6 °F 20.0 °F 12.2 °F 55% 30.29 in 10.0 mi East 5.8 mph - N/A   Clear
2:15 PM 26.6 °F 22.6 °F 12.2 °F 55% 30.27 in 10.0 mi NE 3.5 mph - N/A   Clear
2:35 PM 26.6 °F 17.5 °F 12.2 °F 55% 30.25 in 10.0 mi North 9.2 mph - N/A   Clear
2:55 PM 28.4 °F 20.4 °F 12.2 °F 51% 30.25 in 10.0 mi NE 8.1 mph - N/A   Clear
3:15 PM 28.4 °F 21.2 °F 12.2 °F 51% 30.25 in 10.0 mi ENE 6.9 mph - N/A   Clear
3:35 PM 28.4 °F 23.3 °F 12.2 °F 51% 30.24 in 10.0 mi NNE 4.6 mph - N/A   Clear
3:55 PM 28.4 °F 23.3 °F 14.0 °F 55% 30.25 in 10.0 mi ENE 4.6 mph - N/A   Clear
4:15 PM 26.6 °F 20.0 °F 12.2 °F 55% 30.25 in 10.0 mi NNE 5.8 mph - N/A   Clear
4:35 PM 26.6 °F 19.1 °F 14.0 °F 59% 30.25 in 10.0 mi NNE 6.9 mph - N/A   Clear
4:55 PM 26.6 °F 20.0 °F 14.0 °F 59% 30.25 in 10.0 mi NE 5.8 mph - N/A   Clear
5:15 PM 26.6 °F 19.1 °F 14.0 °F 59% 30.23 in 10.0 mi NE 6.9 mph - N/A   Clear
5:35 PM 24.8 °F 17.9 °F 14.0 °F 64% 30.23 in 10.0 mi NE 5.8 mph - N/A   Clear
5:55 PM 24.8 °F 17.9 °F 14.0 °F 64% 30.22 in 10.0 mi NE 5.8 mph - N/A   Clear
6:15 PM 23.0 °F 17.0 °F 14.0 °F 68% 30.23 in 10.0 mi NE 4.6 mph - N/A   Clear
6:35 PM 23.0 °F 15.8 °F 14.0 °F 68% 30.21 in 10.0 mi NE 5.8 mph - N/A   Clear
6:55 PM 23.0 °F 15.8 °F 14.0 °F 68% 30.20 in 10.0 mi NE 5.8 mph - N/A   Clear
7:15 PM 23.0 °F 14.7 °F 14.0 °F 68% 30.19 in 10.0 mi ENE 6.9 mph - N/A   Clear
7:35 PM 23.0 °F 13.1 °F 14.0 °F 68% 30.19 in 10.0 mi ENE 9.2 mph - N/A   Clear
7:55 PM 23.0 °F 12.4 °F 14.0 °F 68% 30.18 in 10.0 mi ENE 10.4 mph - N/A   Clear
8:15 PM 23.0 °F 13.1 °F 14.0 °F 68% 30.18 in 10.0 mi East 9.2 mph - N/A   Clear
8:35 PM 21.2 °F 9.5 °F 14.0 °F 74% 30.19 in 10.0 mi East 11.5 mph 17.3 mph N/A   Scattered Clouds
8:55 PM 21.2 °F 11.7 °F 15.8 °F 80% 30.17 in 10.0 mi ENE 8.1 mph - N/A   Overcast
9:15 PM 21.2 °F 9.5 °F 17.6 °F 86% 30.16 in 10.0 mi ENE 11.5 mph 17.3 mph N/A   Overcast
9:35 PM 21.2 °F 7.8 °F 17.6 °F 86% 30.14 in 10.0 mi ENE 15.0 mph 18.4 mph N/A   Overcast
9:55 PM 21.2 °F 10.1 °F 17.6 °F 86% 30.14 in 10.0 mi East 10.4 mph - N/A   Overcast
10:15 PM 21.2 °F 8.3 °F 17.6 °F 86% 30.14 in 10.0 mi East 13.8 mph 20.7 mph N/A   Overcast
10:35 PM 21.2 °F 7.8 °F 17.6 °F 86% 30.13 in 10.0 mi East 15.0 mph 19.6 mph N/A   Overcast
10:55 PM 19.4 °F 8.6 °F 17.6 °F 93% 30.11 in 10.0 mi East 9.2 mph 17.3 mph N/A   Overcast
11:15 PM 19.4 °F 8.6 °F 17.6 °F 93% 30.11 in 10.0 mi East 9.2 mph 17.3 mph N/A   Overcast
11:35 PM 19.4 °F 7.9 °F 17.6 °F 93% 30.10 in 10.0 mi East 10.4 mph 18.4 mph N/A   Overcast
11:55 PM 19.4 °F 9.5 °F 17.6 °F 93% 30.10 in 10.0 mi East 8.1 mph - N/A   Overcast